DW5657 Weather Reports


Display with metric or nautical units.
time (UTC)temp
F
wind
direction
speed
MPH
gust
MPH
rain 1hr
in
rain 24hr
in
rain mn
in
humidity
%
barometer
mb
20180520205708 84 139 1.0 3.0 0.00 0.04 0.00 57 1015.1
20180520204705 85 174 2.0 3.0 0.00 0.04 0.00 58 1015.2
20180520203704 84 149 1.0 3.0 0.00 0.04 0.00 60 1015.4
20180520202704 84 89 2.0 3.0 0.00 0.04 0.00 60 1015.5
20180520201708 84 107 2.0 3.0 0.00 0.04 0.00 60 1015.6
20180520200704 84 212 1.0 3.0 0.00 0.04 0.00 60 1015.8
20180520195704 84 59 2.0 7.0 0.00 0.04 0.00 58 1016.0
20180520194705 85 175 2.0 5.0 0.00 0.04 0.00 60 1016.0
20180520193705 85 113 2.0 6.0 0.00 0.04 0.00 64 1016.1
20180520192704 83 114 1.0 3.0 0.00 0.04 0.00 65 1016.3
20180520191704 82 117 1.0 6.0 0.00 0.04 0.00 63 1016.4
20180520190705 82 102 1.0 3.0 0.00 0.04 0.00 62 1016.3
20180520185704 83 104 2.0 3.0 0.00 0.04 0.00 63 1016.5
20180520184704 84 11 3.0 5.0 0.00 0.05 0.00 61 1016.5
20180520183704 85 127 3.0 7.0 0.00 0.06 0.00 61 1016.5
20180520182704 84 139 2.0 5.0 0.00 0.06 0.00 64 1016.5
20180520181704 83 27 2.0 9.0 0.00 0.07 0.00 63 1016.6
20180520180705 84 119 2.0 6.0 0.00 0.08 0.00 66 1016.7
20180520175704 82 355 2.0 5.0 0.00 0.09 0.00 64 1016.9
20180520174704 81 37 1.0 6.0 0.00 0.09 0.00 67 1016.7
20180520173704 82 103 2.0 3.0 0.00 0.09 0.00 69 1016.9
20180520172704 80 320 1.0 5.0 0.00 0.09 0.00 70 1017.0
20180520171704 81 125 3.0 6.0 0.00 0.09 0.00 71 1017.1
20180520170704 80 10 1.0 6.0 0.00 0.09 0.00 72 1017.2
20180520165704 80 95 2.0 7.0 0.00 0.09 0.00 71 1017.4
20180520164704 80 122 2.0 5.0 0.00 0.10 0.00 75 1017.5
20180520163704 80 114 2.0 5.0 0.00 0.10 0.00 74 1017.3
20180520162704 79 42 2.0 5.0 0.00 0.11 0.00 77 1017.3
20180520161704 79 129 3.0 6.0 0.00 0.12 0.00 76 1017.4
20180520160704 78 19 2.0 6.0 0.00 0.13 0.00 78 1017.5
20180520155704 78 106 2.0 6.0 0.00 0.14 0.00 79 1017.3
20180520154705 78 105 2.0 6.0 0.00 0.14 0.00 78 1017.1
20180520153704 78 0 2.0 3.0 0.00 0.15 0.00 77 1017.1
20180520152704 77 122 2.0 5.0 0.00 0.16 0.00 80 1017.0
20180520151704 77 66 2.0 5.0 0.00 0.16 0.00 79 1017.0
20180520150704 77 109 1.0 3.0 0.00 0.17 0.00 81 1016.8
20180520145704 76 140 1.0 3.0 0.00 0.17 0.00 82 1016.6
20180520144704 75 80 2.0 3.0 0.00 0.18 0.00 83 1016.6
20180520143704 74 119 0.0 3.0 0.00 0.18 0.00 85 1016.5
20180520142703 73 126 0.0 5.0 0.00 0.18 0.00 84 1016.7
20180520141704 74 80 2.0 5.0 0.00 0.18 0.00 85 1016.6
20180520140704 73 54 0.0 3.0 0.00 0.19 0.00 85 1016.6
20180520135704 73 107 1.0 6.0 0.00 0.19 0.00 84 1016.6
20180520134704 73 93 3.0 6.0 0.00 0.19 0.00 85 1016.5
20180520133703 73 80 2.0 3.0 0.00 0.20 0.00 86 1016.4
20180520132704 72 68 1.0 5.0 0.00 0.20 0.00 87 1016.3
20180520131704 73 115 2.0 3.0 0.00 0.21 0.00 88 1016.2
20180520130704 72 47 0.0 2.0 0.00 0.21 0.00 90 1015.9
20180520125703 71 49 0.0 3.0 0.00 0.22 0.00 91 1015.9
20180520124704 71 80 0.0 2.0 0.00 0.22 0.00 91 1016.0
20180520123704 70 43 1.0 2.0 0.00 0.22 0.00 91 1016.1
20180520122704 70 32 1.0 2.0 0.00 0.22 0.00 91 1016.2
20180520121704 69 23 1.0 2.0 0.00 0.22 0.00 91 1016.0
20180520120704 68 22 0.0 3.0 0.00 0.22 0.00 91 1016.1
20180520115704 68 25 0.0 1.0 0.00 0.22 0.00 91 1015.8
20180520114704 67 20 0.0 0.0 0.00 0.22 0.00 91 1015.9
20180520113704 66 42 0.0 1.0 0.00 0.22 0.00 90 1015.7
20180520112704 66 18 0.0 0.0 0.00 0.22 0.00 90 1015.5
20180520111704 66 16 0.0 0.0 0.00 0.22 0.00 90 1015.5
20180520110704 66 16 1.0 1.0 0.00 0.22 0.00 90 1015.4
20180520105704 66 16 0.0 1.0 0.00 0.22 0.00 90 1015.3
20180520104704 67 16 0.0 2.0 0.00 0.22 0.00 90 1015.1
20180520103704 67 16 0.0 1.0 0.00 0.22 0.00 90 1015.0
20180520102704 67 16 0.0 1.0 0.00 0.22 0.00 90 1014.5
20180520101704 67 16 0.0 1.0 0.00 0.22 0.00 90 1014.4
20180520100704 67 16 0.0 1.0 0.00 0.22 0.00 90 1014.5
20180520095703 68 16 0.0 2.0 0.00 0.22 0.00 90 1014.6
20180520094704 68 16 1.0 2.0 0.00 0.22 0.00 90 1014.6
20180520093704 68 16 0.0 3.0 0.00 0.22 0.00 90 1014.4
20180520092704 68 315 0.0 3.0 0.00 0.22 0.00 90 1014.4
20180520091706 68 314 0.0 2.0 0.00 0.22 0.00 90 1014.4
20180520090704 68 314 0.0 3.0 0.00 0.22 0.00 89 1014.4
20180520085704 68 328 1.0 3.0 0.00 0.22 0.00 89 1014.5
20180520084704 68 328 2.0 3.0 0.00 0.22 0.00 89 1014.1
20180520083704 68 316 0.0 2.0 0.00 0.22 0.00 89 1014.1
20180520082704 68 316 2.0 3.0 0.00 0.22 0.00 89 1014.0
20180520081704 68 316 0.0 2.0 0.00 0.22 0.00 89 1014.0
20180520080704 68 316 1.0 3.0 0.00 0.22 0.00 89 1014.1
20180520075704 68 316 1.0 3.0 0.00 0.22 0.00 89 1014.1
20180520074704 68 316 0.0 2.0 0.00 0.22 0.00 89 1014.0
20180520073706 68 316 1.0 2.0 0.00 0.22 0.00 89 1013.8
20180520072704 69 316 0.0 1.0 0.00 0.22 0.00 89 1013.8
20180520071704 69 316 0.0 2.0 0.00 0.22 0.00 89 1013.6
20180520070703 69 316 0.0 1.0 0.00 0.22 0.00 89 1013.7
20180520065704 69 316 0.0 2.0 0.00 0.22 0.00 89 1013.5
20180520064704 69 316 0.0 2.0 0.00 0.22 0.00 89 1013.5
20180520063704 69 316 0.0 3.0 0.00 0.22 0.00 89 1013.5
20180520062704 69 316 1.0 3.0 0.00 0.22 0.00 89 1013.5
20180520061703 69 316 0.0 2.0 0.00 0.22 0.00 89 1013.4
20180520060704 69 316 0.0 2.0 0.00 0.22 0.00 88 1013.3
20180520055705 69 316 0.0 2.0 0.00 0.23 0.00 88 1013.3
20180520054704 70 316 1.0 2.0 0.00 0.23 0.00 89 1013.3
20180520053704 70 316 0.0 2.0 0.00 0.23 0.00 89 1013.2
20180520052704 70 316 1.0 3.0 0.00 0.23 0.00 88 1013.2
20180520051704 70 316 1.0 2.0 0.00 0.23 0.00 88 1013.3
20180520050703 70 316 1.0 2.0 0.00 0.23 0.00 88 1013.5
20180520045720 70 0 0.0 1.0 0.00 0.23 0.00 88 1013.4
20180520021709 72 16 1.0 2.0 0.01 0.22 0.22 84 1012.8
20180520020708 72 16 0.0 3.0 0.00 0.21 0.21 84 1012.6
20180520015708 72 31 1.0 3.0 0.00 0.21 0.21 84 1012.5
20180520014709 73 29 0.0 2.0 0.00 0.22 0.21 83 1012.4
20180520013708 73 29 1.0 3.0 0.01 0.22 0.21 83 1012.4
20180520012709 73 28 1.0 3.0 0.01 0.22 0.21 82 1012.1
20180520011708 73 28 0.0 2.0 0.01 0.23 0.21 82 1012.1
20180520010708 74 28 1.0 3.0 0.01 0.23 0.21 82 1012.0
20180520005707 74 28 1.0 3.0 0.01 0.24 0.21 81 1011.8
20180520004708 74 28 1.0 2.0 0.01 0.25 0.21 81 1011.5
20180520003710 74 49 0.0 3.0 0.00 0.25 0.20 81 1011.3
20180520002708 75 49 1.0 3.0 0.00 0.25 0.20 80 1011.2
20180520001708 75 49 1.0 3.0 0.00 0.25 0.20 80 1011.0
20180520000708 75 49 1.0 3.0 0.00 0.25 0.20 79 1010.9
20180519235708 75 49 1.0 6.0 0.01 0.25 0.20 79 1010.9
20180519234708 75 18 2.0 3.0 0.01 0.25 0.20 79 1011.0
20180519233708 75 24 1.0 3.0 0.01 0.25 0.20 79 1010.8
20180519232708 75 3 3.0 7.0 0.01 0.25 0.20 78 1010.6
20180519231708 76 26 2.0 6.0 0.01 0.25 0.20 78 1010.5
20180519230708 75 103 1.0 5.0 0.01 0.26 0.20 78 1010.4
20180519225708 75 17 3.0 8.0 0.00 0.25 0.19 78 1010.5
20180519224708 75 11 3.0 10.0 0.00 0.25 0.19 76 1010.4
20180519223708 75 17 3.0 6.0 0.00 0.25 0.19 77 1010.2
20180519222709 75 354 3.0 7.0 0.00 0.25 0.19 78 1010.1
20180519221708 75 24 1.0 6.0 0.00 0.25 0.19 81 1010.0
20180519220708 75 44 4.0 10.0 0.00 0.25 0.19 82 1010.0
20180519215708 75 13 3.0 7.0 0.00 0.25 0.19 84 1010.0
20180519214708 74 22 4.0 7.0 0.00 0.25 0.19 85 1009.8
20180519213708 73 93 1.0 5.0 0.00 0.25 0.19 87 1009.9
20180519212708 72 307 2.0 3.0 0.00 0.25 0.19 86 1010.0
20180519211708 71 299 1.0 3.0 0.00 0.25 0.19 84 1010.0
20180519210708 75 11 3.0 20.0 0.00 0.25 0.19 75 1010.2